Location: Squirrel Cove
(50.1074°N, 124.9139°W)
Time: 03:28:02
(UTC-07:00)

M-CUBED/EXP-1 PRIME - Visible Passes

Search period start: 22 May 2022 00:00
Search period end: 01 June 2022 00:00
Orbit: 423 x 638 km, 101.7° (Epoch: 21 May)

Date Brightness Start Highest point End Pass type
(mag) Time Alt. Az. Time Alt. Az. Time Alt. Az.
22 May ? 00:26:23 34° ESE 00:27:39 48° ENE 00:31:13 10° N visible
22 May ? 02:01:42 18° W 02:01:45 18° W 02:04:24 10° NW visible
23 May ? 00:15:58 26° ESE 00:17:28 36° ENE 00:20:51 10° N visible
23 May ? 01:51:17 23° WSW 01:51:27 23° WSW 01:54:30 10° NW visible
24 May ? 00:05:30 19° ESE 00:07:15 27° ENE 00:10:22 10° N visible
24 May ? 01:40:48 30° WSW 01:41:07 31° WSW 01:44:25 10° NW visible
24 May ? 23:55:00 14° E 23:57:00 21° ENE 23:59:46 10° N visible
25 May ? 01:30:17 39° SW 01:30:45 41° WSW 01:34:13 10° NNW visible
25 May ? 23:44:25 10° E 23:46:43 16° NE 23:49:01 10° NNE visible
26 May ? 01:19:42 48° SSW 01:20:20 56° WSW 01:23:53 10° NNW visible
26 May ? 23:34:44 10° E 23:36:24 13° NE 23:38:01 10° NNE visible
27 May ? 01:09:04 52° S 01:09:54 78° WSW 01:13:28 10° NNW visible
28 May ? 00:58:23 45° SE 00:59:25 76° ENE 01:02:56 10° NNW visible
28 May ? 02:33:41 11° W 02:33:41 11° W 02:34:35 10° W visible
29 May ? 00:47:39 35° SE 00:48:54 54° ENE 00:52:18 10° NNW visible
29 May ? 02:22:56 14° W 02:23:02 14° W 02:25:03 10° WNW visible
30 May ? 00:36:52 26° ESE 00:38:20 39° ENE 00:41:35 10° N visible
30 May ? 02:12:09 19° WSW 02:12:21 19° W 02:14:57 10° NW visible
31 May ? 00:26:01 19° ESE 00:27:44 29° ENE 00:30:45 10° N visible
31 May ? 02:01:18 25° WSW 02:01:38 25° WSW 02:04:35 10° NW visible
